Location: Maccacari
(45.1333°N, 11.1333°E)
Time: 07:54:07
(UTC+00:00)

CZ-2C R/B - Pass Details

Date: 18 September 2020
Orbit: 391 x 588 km, 35.0° (Epoch: 29 October)

Event Time Altitude Azimuth Distance (km) Brightness Sun altitude
Rises 19:00:09 0° 241° (WSW) 2,431 5.2 -18.0°
Reaches altitude 10° 19:03:00 10° 217° (SW) 1,519 3.7 -18.5°
Enters shadow 19:04:27 14° 193° (SSW) 1,257 3.0 -18.7°
